Terminal Aerodrome Forecast
Issued by NWS

Home | Current Version | Previous Version | Graphics & Text | Print | Product List | Glossary Off
Versions: 1 2 3 4 5 6 7 8 9 10 11 12 13 14 15 16 17 18 19 20 21 22 23 24 25 26 27 28 29

000
FTUS43 KDDC 052320
TAFHYS
TAF
KHYS 052320Z 0600/0624 18015KT P6SM SCT200
     FM061500 23010KT P6SM BKN150 PROB30 0617/0621 VRB20G30KT 6SM
      -TSRA OVC030CB
     FM062100 01016KT P6SM SCT025=

USA.gov is the U.S. government's official web portal to all federal, state and local government web resources and services.